Weather History for KUNU - October, 2012

Change the Weather History Date:

Saturday, October 6, 2012

  Actual Average Record
Temperature  
Mean Temperature 40 °F -  
Max Temperature 46 °F 62 °F 87 °F (2007)
Min Temperature 35 °F 43 °F 26 °F (1980)
Degree Days  
Heating Degree Days 24    
Moisture  
Dew Point 22 °F    
Average Humidity 48    
Maximum Humidity 60    
Minimum Humidity 37    
Precipitation  
Precipitation 0.00 in - - ()
Sea Level Pressure  
Sea Level Pressure 30.11 in    
Wind  
Wind Speed 8 mph (WNW)    
Max Wind Speed 14 mph    
Max Gust Speed 25 mph    
Visibility 10 miles    
Events      
Averages and records for this station are not official NWS values.
T = Trace of Precipitation, MM = Missing Value Source: NWS Daily Summary

Daily Weather History Graph

Daily Weather History Graph

Search for Another Location

Airport or City:

Trip Planner

Search our weather history database for the weather conditions in past years. The results will help you decide how hot, cold, wet, or windy it might be!

Date:

Astronomy

Oct. 06, 2012 Rise Set
Actual Time 6:58 AM CDT 6:26 PM CDT
Civil Twilight 6:30 AM CDT 6:54 PM CDT
Nautical Twilight 5:56 AM CDT 7:27 PM CDT
Astronomical Twilight 5:23 AM CDT 8:00 PM CDT
Moon 10:33 PM CDT (10/6) 1:01 PM CDT (10/6)
Length of Visible Light 12h 24m
Length of Day
11h 27m
Waning Gibbous, 65% of the Moon is Illuminated
Oct 6
Waning Gibbous
Oct 8
Last Quarter
Oct 15
New
Oct 21
First Quarter
Oct 29
Full

Hourly Weather History & Observations

Time (CDT) Temp. Windchill Dew Point Humidity Pressure Visibility Wind Dir Wind Speed Gust Speed Precip Events Conditions
12:15 AM 41.0 °F 35.8 °F 21.2 °F 45% 30.04 in 10.0 mi West 8.1 mph - N/A   Overcast
12:35 AM 41.0 °F 33.5 °F 19.4 °F 42% 30.03 in 10.0 mi WNW 13.8 mph 25.3 mph N/A   Overcast
12:55 AM 39.2 °F 32.5 °F 19.4 °F 45% 30.04 in 10.0 mi WNW 10.4 mph 19.6 mph N/A   Overcast
1:15 AM 39.2 °F 32.5 °F 17.6 °F 42% 30.04 in 10.0 mi West 10.4 mph 20.7 mph N/A   Scattered Clouds
1:35 AM 37.4 °F 30.8 °F 17.6 °F 45% 30.03 in 10.0 mi West 9.2 mph - N/A   Clear
1:55 AM 37.4 °F 31.4 °F 17.6 °F 45% 30.03 in 10.0 mi West 8.1 mph - N/A   Clear
2:15 AM 37.4 °F 32.1 °F 19.4 °F 48% 30.03 in 10.0 mi West 6.9 mph - N/A   Clear
2:35 AM 35.6 °F 29.9 °F 19.4 °F 52% 30.03 in 10.0 mi West 6.9 mph - N/A   Clear
2:55 AM 35.6 °F 30.7 °F 19.4 °F 52% 30.03 in 10.0 mi West 5.8 mph - N/A   Clear
3:15 AM 35.6 °F 29.9 °F 19.4 °F 52% 30.03 in 10.0 mi WSW 6.9 mph - N/A   Clear
3:35 AM 35.6 °F 30.7 °F 21.2 °F 56% 30.04 in 10.0 mi WSW 5.8 mph - N/A   Mostly Cloudy
3:55 AM 37.4 °F 32.8 °F 21.2 °F 52% 30.03 in 10.0 mi WSW 5.8 mph - N/A   Overcast
4:15 AM 35.6 °F 29.9 °F 21.2 °F 56% 30.03 in 10.0 mi WSW 6.9 mph - N/A   Overcast
4:35 AM 35.6 °F 29.2 °F 21.2 °F 56% 30.04 in 10.0 mi WSW 8.1 mph - N/A   Overcast
4:55 AM 37.4 °F 31.4 °F 21.2 °F 52% 30.04 in 10.0 mi West 8.1 mph - N/A   Overcast
5:15 AM 37.4 °F 30.8 °F 23.0 °F 56% 30.04 in 10.0 mi West 9.2 mph - N/A   Overcast
5:35 AM 37.4 °F 30.3 °F 23.0 °F 56% 30.05 in 10.0 mi WNW 10.4 mph 18.4 mph N/A   Overcast
5:55 AM 37.4 °F 29.8 °F 23.0 °F 56% 30.06 in 10.0 mi WNW 11.5 mph 18.4 mph N/A   Overcast
6:15 AM 37.4 °F 31.4 °F 23.0 °F 56% 30.06 in 10.0 mi WNW 8.1 mph - N/A   Overcast
6:35 AM 37.4 °F 31.4 °F 23.0 °F 56% 30.07 in 10.0 mi WNW 8.1 mph 16.1 mph N/A   Overcast
6:55 AM 37.4 °F 29.8 °F 23.0 °F 56% 30.07 in 10.0 mi WNW 11.5 mph 19.6 mph N/A   Overcast
7:15 AM 37.4 °F 30.8 °F 23.0 °F 56% 30.07 in 10.0 mi WNW 9.2 mph 17.3 mph N/A   Overcast
7:35 AM 37.4 °F 30.3 °F 23.0 °F 56% 30.08 in 10.0 mi NW 10.4 mph 19.6 mph N/A   Overcast
7:55 AM 37.4 °F 31.4 °F 23.0 °F 56% 30.08 in 10.0 mi NW 8.1 mph - N/A   Overcast
8:15 AM 37.4 °F 31.4 °F 23.0 °F 56% 30.09 in 10.0 mi WNW 8.1 mph - N/A   Overcast
8:35 AM 37.4 °F 31.4 °F 23.0 °F 56% 30.10 in 10.0 mi WNW 8.1 mph - N/A   Overcast
9:15 AM 37.4 °F 30.3 °F 24.8 °F 60% 30.11 in 10.0 mi WNW 10.4 mph 21.9 mph N/A   Overcast
9:35 AM 39.2 °F 35.0 °F 24.8 °F 56% 30.11 in 10.0 mi WNW 5.8 mph 16.1 mph N/A   Overcast
9:55 AM 39.2 °F 33.0 °F 23.0 °F 52% 30.12 in 10.0 mi WNW 9.2 mph 17.3 mph N/A   Overcast
10:15 AM 41.0 °F 34.3 °F 23.0 °F 49% 30.12 in 10.0 mi WNW 11.5 mph 16.1 mph N/A   Overcast
10:35 AM 41.0 °F 34.7 °F 23.0 °F 49% 30.12 in 10.0 mi WNW 10.4 mph 16.1 mph N/A   Overcast
10:55 AM 41.0 °F 35.2 °F 23.0 °F 49% 30.12 in 10.0 mi NW 9.2 mph 16.1 mph N/A   Overcast
11:15 AM 41.0 °F 35.2 °F 23.0 °F 49% 30.13 in 10.0 mi WNW 9.2 mph - N/A   Overcast
11:35 AM 42.8 °F 35.8 °F 23.0 °F 46% 30.13 in 10.0 mi WNW 13.8 mph 18.4 mph N/A   Overcast
11:55 AM 42.8 °F 37.5 °F 21.2 °F 42% 30.14 in 10.0 mi WNW 9.2 mph 18.4 mph N/A   Overcast
12:15 PM 42.8 °F 36.6 °F 21.2 °F 42% 30.14 in 10.0 mi NNW 11.5 mph 23.0 mph N/A   Overcast
12:35 PM 42.8 °F 37.5 °F 23.0 °F 46% 30.14 in 10.0 mi WNW 9.2 mph - N/A   Overcast
12:55 PM 42.8 °F 36.6 °F 23.0 °F 46% 30.14 in 10.0 mi NW 11.5 mph 17.3 mph N/A   Overcast
1:15 PM 42.8 °F 37.0 °F 23.0 °F 46% 30.14 in 10.0 mi WNW 10.4 mph - N/A   Overcast
1:35 PM 44.6 °F 39.2 °F 21.2 °F 39% 30.13 in 10.0 mi WNW 10.4 mph 20.7 mph N/A   Overcast
1:55 PM 46.4 °F 41.9 °F 21.2 °F 37% 30.12 in 10.0 mi WNW 9.2 mph 17.3 mph N/A   Overcast
2:15 PM 44.6 °F 39.7 °F 19.4 °F 37% 30.12 in 10.0 mi WNW 9.2 mph 16.1 mph N/A   Mostly Cloudy
2:35 PM 44.6 °F 39.2 °F 19.4 °F 37% 30.12 in 10.0 mi WNW 10.4 mph 18.4 mph N/A   Overcast
2:55 PM 44.6 °F 38.4 °F 21.2 °F 39% 30.12 in 10.0 mi NW 12.7 mph 17.3 mph N/A   Overcast
3:15 PM 42.8 °F 37.0 °F 21.2 °F 42% 30.13 in 10.0 mi WNW 10.4 mph - N/A   Overcast
3:35 PM 44.6 °F 39.2 °F 19.4 °F 37% 30.13 in 10.0 mi WNW 10.4 mph 16.1 mph N/A   Overcast
3:55 PM 42.8 °F 37.5 °F 19.4 °F 39% 30.13 in 10.0 mi WNW 9.2 mph - N/A   Overcast
4:15 PM 42.8 °F 38.0 °F 21.2 °F 42% 30.13 in 10.0 mi WNW 8.1 mph 16.1 mph N/A   Overcast
4:35 PM 42.8 °F 38.0 °F 21.2 °F 42% 30.13 in 10.0 mi WNW 8.1 mph - N/A   Overcast
4:55 PM 42.8 °F 38.0 °F 19.4 °F 39% 30.14 in 10.0 mi NW 8.1 mph - N/A   Overcast
5:15 PM 42.8 °F 38.0 °F 19.4 °F 39% 30.15 in 10.0 mi NW 8.1 mph - N/A   Overcast
5:35 PM 42.8 °F 38.0 °F 19.4 °F 39% 30.15 in 10.0 mi NW 8.1 mph - N/A   Overcast
6:15 PM 42.8 °F 39.3 °F 21.2 °F 42% 30.15 in 10.0 mi WNW 5.8 mph - N/A   Overcast
6:35 PM 42.8 °F 40.1 °F 21.2 °F 42% 30.16 in 10.0 mi West 4.6 mph - N/A   Overcast
6:55 PM 41.0 °F 37.1 °F 21.2 °F 45% 30.16 in 10.0 mi WNW 5.8 mph - N/A   Overcast
7:15 PM 41.0 °F 38.0 °F 21.2 °F 45% 30.17 in 10.0 mi WNW 4.6 mph - N/A   Overcast
7:35 PM 41.0 °F - 23.0 °F 49% 30.17 in 10.0 mi Calm Calm - N/A   Overcast
7:55 PM 41.0 °F 38.0 °F 23.0 °F 49% 30.18 in 10.0 mi WNW 4.6 mph - N/A   Overcast
8:15 PM 41.0 °F 38.0 °F 23.0 °F 49% 30.18 in 10.0 mi WNW 4.6 mph - N/A   Overcast
8:35 PM 41.0 °F 38.0 °F 23.0 °F 49% 30.18 in 10.0 mi West 4.6 mph - N/A   Overcast
8:55 PM 41.0 °F 39.0 °F 23.0 °F 49% 30.18 in 10.0 mi WNW 3.5 mph - N/A   Overcast
9:15 PM 41.0 °F 39.0 °F 23.0 °F 49% 30.18 in 10.0 mi West 3.5 mph - N/A   Overcast
9:35 PM 41.0 °F 38.0 °F 23.0 °F 49% 30.18 in 10.0 mi WNW 4.6 mph - N/A   Overcast
9:55 PM 41.0 °F 39.0 °F 23.0 °F 49% 30.17 in 10.0 mi WNW 3.5 mph - N/A   Overcast
10:15 PM 41.0 °F 39.0 °F 23.0 °F 49% 30.18 in 10.0 mi WNW 3.5 mph - N/A   Overcast
10:35 PM 41.0 °F 36.4 °F 23.0 °F 49% 30.17 in 10.0 mi WNW 6.9 mph - N/A   Overcast
10:55 PM 39.2 °F 34.2 °F 23.0 °F 52% 30.18 in 10.0 mi WNW 6.9 mph - N/A   Overcast
11:15 PM 39.2 °F 37.0 °F 23.0 °F 52% 30.18 in 10.0 mi NW 3.5 mph - N/A   Overcast
11:35 PM 39.2 °F 35.9 °F 23.0 °F 52% 30.18 in 10.0 mi NW 4.6 mph - N/A   Overcast
11:55 PM 39.2 °F 35.9 °F 23.0 °F 52% 30.18 in 10.0 mi NW 4.6 mph - N/A   Overcast